Tracking 31027 objects as of 19-Jul-2025
HD Live streaming from Space Station
objects crossing your sky now

SL-23 R/B

Track SL-23 R/B now!


NORAD ID: 34112
Int'l Code: 2009-009B
Perigee: 1,375.6 km
Apogee: 35,759.0 km
Inclination: 35.2 °
Period: 653.2 minutes
Semi major axis: 24938 km
RCS: 13.401 m2 (large)
Launch date: February 26, 2009
Source: Commonwealth of Independent States (former USSR) (CIS)
Launch site: TYURATAM MISSILE AND SPACE COMPLEX (TTMTR)

Note: This is a ROCKET BODY
Your satellite tracking list
STARLINK-6351
Track 1 satellite(s)




NASA's NSSDC Master Catalog

Two Line Element Set (TLE):
1 34112U 09009B   25199.36410539 -.00000068  00000-0  00000-0 0  9991
2 34112  35.2311 352.7953 6893687  49.1282 354.3072  2.20446242132001
Source of the keplerian elements: AFSPC